Location: eljas
(40.1958°N, 6.8661°W)
Time: 14:28:36
(UTC+02:00)

ISS - All Passes

Search period start: 28 July 2016 00:00
Search period end: 07 August 2016 00:00
Orbit: 401 x 404 km, 51.6° (Epoch: 28 July)

Date Brightness Start Highest point End Pass type
(mag) Time Alt. Az. Time Alt. Az. Time Alt. Az.
28 Jul - 01:13:54 10° NW 01:15:44 14° NNW 01:17:35 10° NNE visible
28 Jul - 02:51:56 10° NNW 02:53:16 12° N 02:54:35 10° NNE visible
28 Jul - 04:27:39 10° NW 04:30:32 28° NNE 04:33:24 10° E visible
28 Jul - 06:03:59 10° WNW 06:07:00 36° SW 06:10:02 10° SSE visible
28 Jul - 22:42:29 10° SW 22:45:44 88° SE 22:48:59 10° NE visible
29 Jul - 00:20:11 10° WNW 00:22:31 18° NNW 00:24:53 10° NNE visible
29 Jul - 01:58:56 10° NNW 01:59:58 11° N 02:01:02 10° NNE visible
29 Jul - 03:34:57 10° NNW 03:37:24 19° NNE 03:39:52 10° ENE visible
29 Jul - 05:10:54 10° NW 05:14:09 76° SW 05:17:24 10° SE visible
29 Jul - 21:49:46 10° SSW 21:52:51 42° SE 21:55:58 10° ENE daylight
29 Jul - 23:26:36 10° W 23:29:23 25° NNW 23:32:11 10° NNE visible
30 Jul - 01:05:27 10° NNW 01:06:42 12° N 01:07:56 10° NNE visible
30 Jul - 02:42:15 10° NNW 02:44:13 15° NNE 02:46:10 10° NE visible
30 Jul - 04:17:59 10° NW 04:21:13 54° NE 04:24:24 10° ESE night (unlit)
30 Jul - 05:55:19 10° W 05:57:20 15° SW 05:59:20 10° S night (unlit)
30 Jul - 20:57:31 10° S 21:00:04 21° SE 21:02:37 10° E daylight
30 Jul - 22:33:13 10° WSW 22:36:19 41° NNW 22:39:26 10° NE visible
31 Jul - 00:11:43 10° NW 00:13:25 13° NNW 00:15:07 10° NNE visible
31 Jul - 01:49:31 10° NNW 01:50:57 12° N 01:52:24 10° NE visible
31 Jul - 03:25:13 10° NW 03:28:11 31° NNE 03:31:08 10° E night (unlit)
31 Jul - 05:01:41 10° WNW 05:04:34 30° SW 05:07:28 10° SSE night (unlit)
31 Jul - 20:06:27 10° SE 20:07:20 11° SE 20:08:14 10° ESE daylight
31 Jul - 21:40:05 10° WSW 21:43:19 77° NW 21:46:36 10° NE daylight
31 Jul - 23:17:59 10° WNW 23:20:12 17° NNW 23:22:24 10° NNE visible
01 Aug - 00:56:35 10° NNW 00:57:41 11° N 00:58:46 10° NNE visible
01 Aug - 02:32:29 10° NNW 02:35:04 21° NNE 02:37:38 10° ENE visible
01 Aug - 04:08:30 10° WNW 04:11:44 62° SW 04:14:56 10° SE night (unlit)
01 Aug - 20:47:15 10° SW 20:50:25 52° SE 20:53:35 10° ENE daylight
01 Aug - 22:24:20 10° W 22:27:01 23° NNW 22:29:42 10° NNE visible
02 Aug - 00:03:14 10° NNW 00:04:22 11° N 00:05:31 10° NNE visible
02 Aug - 01:39:47 10° NNW 01:41:52 16° NNE 01:43:58 10° ENE visible
02 Aug - 03:15:33 10° NW 03:18:48 65° NE 03:22:02 10° ESE night (unlit)
02 Aug - 04:53:18 10° W 04:54:51 13° SW 04:56:23 10° SSW night (unlit)
02 Aug - 19:54:50 10° SSW 19:57:35 25° SE 20:00:21 10° ENE daylight
02 Aug - 21:30:53 10° W 21:33:55 35° NNW 21:36:58 10° NE daylight
02 Aug - 23:09:32 10° NW 23:11:06 13° N 23:12:38 10° NNE visible
03 Aug - 00:47:03 10° NNW 00:48:37 13° N 00:50:12 10° NE visible
03 Aug - 02:22:44 10° NW 02:25:47 36° NNE 02:28:49 10° E visible
03 Aug - 03:59:23 10° WNW 04:02:06 25° SW 04:04:49 10° S night (unlit)
03 Aug - 19:03:13 10° SSE 19:04:50 13° SE 19:06:28 10° E daylight
03 Aug - 20:37:40 10° WSW 20:40:53 64° NW 20:44:08 10° NE daylight
03 Aug - 22:15:46 10° NW 22:17:50 16° NNW 22:19:55 10° NNE visible
03 Aug - 23:54:11 10° NNW 23:55:20 11° N 23:56:30 10° NNE visible
04 Aug - 01:29:59 10° NNW 01:32:41 23° NNE 01:35:23 10° E visible
04 Aug - 03:06:06 10° WNW 03:09:16 50° SW 03:12:25 10° SE night (unlit)
04 Aug - 19:44:44 10° SW 19:47:57 64° SE 19:51:11 10° ENE daylight
04 Aug - 21:22:04 10° WNW 21:24:38 21° NNW 21:27:12 10° NNE daylight
04 Aug - 23:00:57 10° NNW 23:02:02 11° N 23:03:07 10° NNE visible
05 Aug - 00:37:16 10° NNW 00:39:30 17° NNE 00:41:44 10° ENE visible
05 Aug - 02:13:07 10° NW 02:16:22 79° NE 02:19:37 10° SE visible
05 Aug - 03:51:39 10° WSW 03:52:20 10° SW 03:53:00 10° SW night (unlit)
05 Aug - 18:52:11 10° SSW 18:55:06 31° SE 18:58:01 10° ENE daylight
05 Aug - 20:28:33 10° W 20:31:30 31° NNW 20:34:28 10° NE daylight
05 Aug - 22:07:18 10° NW 22:08:44 12° N 22:10:10 10° NNE visible
05 Aug - 23:44:32 10° NNW 23:46:16 13° NNE 23:47:59 10° NE visible
06 Aug - 01:20:14 10° NW 01:23:22 41° NNE 01:26:28 10° ESE visible
06 Aug - 02:57:05 10° W 02:59:36 21° SW 03:02:07 10° S night (unlit)
06 Aug - 18:00:15 10° S 18:02:19 16° SE 18:04:24 10° E daylight
06 Aug - 19:35:15 10° WSW 19:38:26 53° NW 19:41:39 10° NE daylight
06 Aug - 21:13:31 10° NW 21:15:27 15° NNW 21:17:23 10° NNE daylight
06 Aug - 22:51:43 10° NNW 22:52:58 12° N 22:54:13 10° NNE visible
